Location: Lango�lan
(48.1202°N, 3.2340°W)
Time: 00:54:33
(UTC+00:00)

COBE Rocket - Pass Details

Date: 23 October 2019
Orbit: 680 x 782 km, 97.1° (Epoch: 12 November)

Event Time Altitude Azimuth Distance (km) Brightness Sun altitude
Rises 05:17:46 0° 169° (S) 3,202 7.4 -15.0°
Reaches altitude 10° 05:20:03 10° 171° (S) 2,294 6.6 -14.6°
Maximum altitude 05:25:08 80° 258° (WSW) 793 3.9 -13.7°
Drops below altitude 10° 05:30:21 10° 346° (NNW) 2,346 6.3 -12.9°
Sets 05:32:42 0° 347° (NNW) 3,282 7.1 -12.5°
